Milwaukee, WI

5:28 AM CST on December 14, 2017 (GMT -0600)
Gen Mitchell International

Weather History for KMKE - September, 2013

Change the Weather History Date:

Thursday, September 5, 2013

  Actual Average Record
Temperature  
Mean Temperature 63 °F 67 °F  
Max Temperature 68 °F 75 °F 94 °F (1912)
Min Temperature 57 °F 59 °F 43 °F (1962)
Degree Days  
Heating Degree Days 2 2  
Month to date heating degree days 2 6  
Since 1 July heating degree days 24 32  
Cooling Degree Days 0 4  
Month to date cooling degree days 15 21  
Year to date cooling degree days 592 586  
Growing Degree Days 14 (Base 50)    
Moisture  
Dew Point 51 °F    
Average Humidity 65    
Maximum Humidity 81    
Minimum Humidity 48    
Precipitation  
Precipitation 0.00 in 0.11 in 1.95 in (1917)
Month to date precipitation T 0.52  
Year to date precipitation 30.13 24.70  
Snow  
Snow 0.00 in 0.00 in 0.00 in ()
Month to date snowfall 0.0 0.0  
Since 1 July snowfall 0.0 0.0  
Since 1 September snowfall 0.0 0.0  
Snow Depth 0.00 in    
Sea Level Pressure  
Sea Level Pressure 30.24 in    
Wind  
Wind Speed 9 mph (NE)    
Max Wind Speed 18 mph    
Max Gust Speed 24 mph    
Visibility 10 miles    
Events      
T = Trace of Precipitation, MM = Missing Value Source: NWS Daily Summary

Daily Weather History Graph

Daily Weather History Graph

Search for Another Location

Airport or City:

Trip Planner

Search our weather history database for the weather conditions in past years. The results will help you decide how hot, cold, wet, or windy it might be!

Date:

Astronomy

Sep. 05, 2013 Rise Set
Actual Time 6:20 AM CDT 7:18 PM CDT
Civil Twilight 5:51 AM CDT 7:47 PM CDT
Nautical Twilight 5:17 AM CDT 8:22 PM CDT
Astronomical Twilight 4:41 AM CDT 8:57 PM CDT
Moon 6:33 AM CDT (9/5) 7:08 PM CDT (9/5)
Length of Visible Light 13h 55m
Length of Day
12h 58m
New Moon, 0% of the Moon is Illuminated
Sep 5
New Moon
Sep 12
First Quarter
Sep 19
Full
Sep 26
Last Quarter
Oct 4
New

Hourly Weather History & Observations

Time (CDT) Temp. Dew Point Humidity Pressure Visibility Wind Dir Wind Speed Gust Speed Precip Events Conditions
12:14 AM 66.2 °F 60.8 °F 83% 30.15 in 10.0 mi NE 8.1 mph - N/A   Overcast
12:52 AM 66.0 °F 61.0 °F 84% 30.14 in 10.0 mi NE 4.6 mph - N/A   Mostly Cloudy
1:52 AM 66.0 °F 59.0 °F 78% 30.15 in 10.0 mi ENE 8.1 mph - N/A   Mostly Cloudy
2:52 AM 66.0 °F 52.0 °F 60% 30.16 in 10.0 mi NE 9.2 mph - N/A   Mostly Cloudy
3:52 AM 66.0 °F 55.0 °F 68% 30.17 in 10.0 mi ENE 9.2 mph - N/A   Overcast
4:52 AM 66.0 °F 53.1 °F 63% 30.19 in 10.0 mi ENE 11.5 mph - N/A   Overcast
5:52 AM 64.9 °F 52.0 °F 63% 30.22 in 10.0 mi ENE 13.8 mph - N/A   Overcast
6:52 AM 64.0 °F 53.1 °F 67% 30.25 in 10.0 mi ENE 11.5 mph - N/A   Mostly Cloudy
7:52 AM 64.9 °F 53.1 °F 65% 30.26 in 10.0 mi ENE 13.8 mph - N/A   Partly Cloudy
8:52 AM 64.9 °F 50.0 °F 58% 30.28 in 10.0 mi ENE 16.1 mph - N/A   Mostly Cloudy
9:52 AM 64.9 °F 46.9 °F 52% 30.29 in 10.0 mi ENE 18.4 mph - N/A   Scattered Clouds
10:52 AM 66.0 °F 48.0 °F 52% 30.30 in 10.0 mi ENE 13.8 mph - N/A   Partly Cloudy
11:52 AM 66.9 °F 48.0 °F 51% 30.30 in 10.0 mi ENE 11.5 mph - N/A   Scattered Clouds
12:52 PM 66.9 °F 48.9 °F 52% 30.30 in 10.0 mi ENE 9.2 mph - N/A   Partly Cloudy
1:52 PM 66.0 °F 46.9 °F 50% 30.29 in 10.0 mi NE 9.2 mph - N/A   Partly Cloudy
2:52 PM 66.9 °F 46.9 °F 49% 30.27 in 10.0 mi NE 9.2 mph - N/A   Partly Cloudy
3:52 PM 66.9 °F 48.9 °F 52% 30.27 in 10.0 mi ENE 9.2 mph - N/A   Partly Cloudy
4:52 PM 66.0 °F 48.9 °F 54% 30.26 in 10.0 mi NE 9.2 mph - N/A   Partly Cloudy
5:52 PM 66.0 °F 48.0 °F 52% 30.26 in 10.0 mi NE 8.1 mph - N/A   Clear
6:52 PM 64.0 °F 46.9 °F 54% 30.25 in 10.0 mi NE 6.9 mph - N/A   Clear
7:52 PM 62.1 °F 46.9 °F 58% 30.24 in 10.0 mi Calm Calm - N/A   Partly Cloudy
8:52 PM 60.1 °F 46.9 °F 62% 30.25 in 10.0 mi NE 4.6 mph - N/A   Clear
9:52 PM 61.0 °F 46.9 °F 60% 30.25 in 10.0 mi NE 3.5 mph - N/A   Clear
10:52 PM 59.0 °F 48.0 °F 67% 30.25 in 10.0 mi Calm Calm - N/A   Clear
11:52 PM 59.0 °F 48.9 °F 69% 30.24 in 10.0 mi Calm Calm - N/A   Clear